Погода в Золотом Потоке

Украина / Тернопольская область     48°54′26″N   25°20′26″E
темп.,
°C
ветер,
м/с
пор.,
м/с
влажн.,
%
обл.,
%
осадки,
мм/ч
давл.,
гПа
погр.,
м
7 мая, пт
пт700:00+6ю227790 0.0 101314
03:00+5юв2276100 0.0 101316
06:00+6юв41181100 0.0 1011268
09:00+10ююв61073100 0.0 1009438
12:00+14ююз5862100 0.0 10071106
15:00+13ююз5876100 2.3 1007741
18:00+12юз2382100 0.8 1006119
21:00+10зсз3787100 1.4 1007166
8 мая, сб
сб800:00+9зсз41091100 0.2 1009395
03:00+6сз81390100 1.3 1012969
06:00+4зсз81390100 0.1 1015924
09:00+5зсз913778 0.2 10171019
12:00+7зсз9127187 0.1 10191452
15:00+7зсз91265100 0.3 10201508
18:00+8сз8116114 0.1 10211431
21:00+4сз33805 0.1 102239
9 мая, вс
вс900:00+3з22874 0.0 102421
03:00+2з22890 0.0 102522
06:00+2зюз11835 0.0 102614
09:00+8юз22624 0.0 1026293
12:00+12ю224515 0.0 10251375
15:00+15ююв124379 0.0 10251555
18:00+15юв33484 0.0 10241194
21:00+9юв49665 0.0 1025135
10 мая, пн
пн1000:00+7юв4136570 0.0 1025248
03:00+7юв412665 0.0 1025256
06:00+5вюв39705 0.0 1024156
09:00+11юв711655 0.0 1024455
12:00+15юв8105716 0.0 1023857
15:00+18юв89546 0.0 10221100
18:00+17юв710625 0.0 1021894
21:00+13вюв614705 0.0 1022391
11 мая, вт
вт1100:00+11вюв615691 0.0 1022399
03:00+10вюв715690 0.0 1022354
06:00+8вюв614750 0.0 1022314
09:00+12юв813660 0.0 1021542
12:00+16юв810550 0.0 1020864
15:00+18юв89460 0.0 10191066
18:00+18юв710590 0.0 1018974
21:00+13вюв412790 0.0 1017213